Location: Unspecified
(0.0000°N, 0.0000°E)
Time: 04:03:59
(UTC+00:00)

OTV 5 (USA 277) - Pass Details

Date: 10 October 2017
Orbit: 404 x 417 km, 43.0° (Epoch: 07 September)

Event Time Altitude Azimuth Distance (km) Brightness Sun altitude
Exits shadow 04:17:29 11° 178° (S) 1,382 ? -22.2°
Drops below altitude 10° 04:17:37 11° 176° (S) 1,423 ? -22.2°
Sets 04:20:10 0° 157° (SSE) 2,312 ? -21.6°
